When you browse on this site, cookies collect data to enhance your experience and personalize the content and advertising you see.
Visit our Privacy Policy to learn more. By continuing to use the site, you agree to this use of cookies and data.
  • En España
  • Lista de países
  • Para 7 días
  • Temperatura del agua
  • Mapa Satelital
  • El tiempo en el mapa
  • Informadores
  • user-avatar
    Iniciar sesión

    Tiempo cada hora Konyushino

    Hoy, 18 Enero, Viernes

    Tiempo Temperatura Precipitaciones Viento Presión Humedad
    00:00 -2°C° 0.1 mm 6 mps 725 mmHg 85%
    01:00 -2°C° 0.1 mm 6 mps 725 mmHg 84%
    02:00 -1°C° 0 mm 4 mps 726 mmHg 83%
    03:00 -3°C° 0 mm 4 mps 727 mmHg 84%
    04:00 -4°C° 0 mm 4 mps 727 mmHg 85%
    05:00 -5°C° 0 mm 4 mps 728 mmHg 86%
    06:00 -5°C° 0 mm 4 mps 729 mmHg 86%
    07:00 -7°C° 0 mm 4 mps 729 mmHg 87%
    08:00 -7°C° 0 mm 3 mps 730 mmHg 89%
    09:00 -8°C° 0 mm 4 mps 731 mmHg 86%
    10:00 -8°C° 0 mm 4 mps 731 mmHg 84%
    11:00 -8°C° 0 mm 4 mps 732 mmHg 82%
    12:00 -8°C° 0 mm 4 mps 733 mmHg 83%
    13:00 -8°C° 0 mm 3 mps 733 mmHg 85%
    14:00 -7°C° 0 mm 2 mps 734 mmHg 86%
    15:00 -8°C° 0 mm 2 mps 734 mmHg 88%
    16:00 -8°C° 0 mm 1 mps 734 mmHg 91%
    17:00 -8°C° 0 mm 1 mps 734 mmHg 93%
    18:00 -8°C° 0 mm 1 mps 734 mmHg 93%
    19:00 -8°C° 0 mm 1 mps 734 mmHg 93%
    20:00 -8°C° 0 mm 1 mps 734 mmHg 94%
    21:00 -9°C° 0 mm 1 mps 734 mmHg 94%
    22:00 -12°C° 0 mm 2 mps 734 mmHg 94%
    23:00 -12°C° 0 mm 2 mps 735 mmHg 94%

    Mañana, 19 Enero, Sábado

    Tiempo Temperatura Precipitaciones Viento Presión Humedad
    00:00 -13°C° 0 mm 2 mps 735 mmHg 95%
    01:00 -13°C° 0 mm 2 mps 736 mmHg 96%
    02:00 -14°C° 0 mm 2 mps 736 mmHg 97%
    03:00 -13°C° 0 mm 2 mps 736 mmHg 96%
    04:00 -12°C° 0 mm 2 mps 736 mmHg 95%
    05:00 -12°C° 0 mm 3 mps 736 mmHg 93%
    06:00 -12°C° 0.1 mm 3 mps 737 mmHg 93%
    07:00 -12°C° 0.1 mm 3 mps 737 mmHg 92%
    08:00 -10°C° 0.1 mm 3 mps 737 mmHg 92%
    09:00 -10°C° 0.1 mm 3 mps 738 mmHg 90%
    10:00 -10°C° 0.1 mm 3 mps 738 mmHg 87%
    11:00 -10°C° 0.1 mm 3 mps 738 mmHg 85%
    12:00 -10°C° 0 mm 3 mps 739 mmHg 85%
    13:00 -10°C° 0 mm 3 mps 739 mmHg 86%
    14:00 -12°C° 0 mm 3 mps 739 mmHg 87%
    15:00 -12°C° 0 mm 3 mps 740 mmHg 89%
    16:00 -12°C° 0 mm 2 mps 740 mmHg 91%
    17:00 -12°C° 0 mm 2 mps 740 mmHg 93%
    18:00 -12°C° 0 mm 2 mps 741 mmHg 93%
    19:00 -13°C° 0 mm 2 mps 741 mmHg 94%
    20:00 -13°C° 0 mm 2 mps 741 mmHg 94%
    21:00 -12°C° 0 mm 2 mps 741 mmHg 94%
    22:00 -13°C° 0 mm 3 mps 741 mmHg 94%
    23:00 -12°C° 0 mm 3 mps 742 mmHg 94%

    Pasado mañana, 20 Enero, Domingo

    Tiempo Temperatura Precipitaciones Viento Presión Humedad
    00:00 -10°C° 0 mm 3 mps 741 mmHg 93%
    01:00 -9°C° 0 mm 3 mps 741 mmHg 93%
    02:00 -8°C° 0 mm 3 mps 741 mmHg 92%
    03:00 -8°C° 0.1 mm 3 mps 741 mmHg 91%
    04:00 -9°C° 0.1 mm 4 mps 740 mmHg 90%
    05:00 -8°C° 0.1 mm 4 mps 739 mmHg 89%
    06:00 -8°C° 0.1 mm 5 mps 739 mmHg 88%
    07:00 -8°C° 0.1 mm 5 mps 738 mmHg 88%
    08:00 -8°C° 0.1 mm 5 mps 737 mmHg 87%
    09:00 -8°C° 0.3 mm 5 mps 737 mmHg 88%
    10:00 -7°C° 0.3 mm 5 mps 737 mmHg 89%
    11:00 -5°C° 0.3 mm 4 mps 736 mmHg 89%
    12:00 -5°C° 0.3 mm 4 mps 736 mmHg 87%
    13:00 -7°C° 0.3 mm 4 mps 736 mmHg 86%
    14:00 -7°C° 0.3 mm 4 mps 736 mmHg 84%
    15:00 -7°C° 0.1 mm 4 mps 736 mmHg 85%
    16:00 -8°C° 0.1 mm 4 mps 737 mmHg 86%
    17:00 -9°C° 0.1 mm 4 mps 737 mmHg 87%
    18:00 -11°C° 0 mm 4 mps 737 mmHg 86%
    19:00 -12°C° 0 mm 4 mps 738 mmHg 86%
    20:00 -14°C° 0 mm 3 mps 738 mmHg 86%
    21:00 -14°C° 0 mm 3 mps 739 mmHg 87%
    22:00 -14°C° 0 mm 3 mps 739 mmHg 88%
    23:00 -16°C° 0 mm 4 mps 739 mmHg 90%

    21 Enero, Lunes

    Tiempo Temperatura Precipitaciones Viento Presión Humedad
    00:00 -15°C° 0 mm 3 mps 740 mmHg 90%
    01:00 -15°C° 0 mm 3 mps 740 mmHg 91%
    02:00 -16°C° 0 mm 3 mps 740 mmHg 91%
    03:00 -16°C° 0 mm 3 mps 740 mmHg 92%
    04:00 -17°C° 0 mm 3 mps 740 mmHg 93%
    05:00 -16°C° 0 mm 2 mps 740 mmHg 94%
    06:00 -17°C° 0 mm 2 mps 741 mmHg 94%
    07:00 -18°C° 0 mm 2 mps 741 mmHg 95%
    08:00 -19°C° 0 mm 2 mps 741 mmHg 96%
    09:00 -18°C° 0 mm 2 mps 741 mmHg 95%
    10:00 -18°C° 0 mm 2 mps 742 mmHg 94%
    11:00 -17°C° 0 mm 2 mps 742 mmHg 93%
    12:00 -17°C° 0 mm 2 mps 742 mmHg 93%
    13:00 -17°C° 0 mm 2 mps 742 mmHg 93%
    14:00 -17°C° 0 mm 2 mps 743 mmHg 92%
    15:00 -17°C° 0 mm 2 mps 743 mmHg 93%
    16:00 -18°C° 0 mm 2 mps 743 mmHg 94%
    17:00 -19°C° 0 mm 2 mps 743 mmHg 95%
    18:00 -19°C° 0 mm 2 mps 744 mmHg 96%
    19:00 -20°C° 0 mm 2 mps 744 mmHg 96%
    20:00 -21°C° 0 mm 2 mps 744 mmHg 96%
    21:00 -21°C° 0 mm 2 mps 744 mmHg 97%
    22:00 -21°C° 0 mm 2 mps 744 mmHg 97%
    23:00 -21°C° 0 mm 2 mps 745 mmHg 97%

    22 Enero, Martes

    Tiempo Temperatura Precipitaciones Viento Presión Humedad
    00:00 -21°C° 0 mm 2 mps 745 mmHg 97%
    01:00 -23°C° 0 mm 2 mps 745 mmHg 97%
    02:00 -23°C° 0 mm 2 mps 745 mmHg 97%
    03:00 -23°C° 0 mm 2 mps 745 mmHg 98%
    04:00 -23°C° 0 mm 2 mps 745 mmHg 98%
    05:00 -23°C° 0 mm 2 mps 745 mmHg 98%
    06:00 -23°C° 0 mm 2 mps 745 mmHg 98%
    07:00 -24°C° 0 mm 2 mps 746 mmHg 98%
    08:00 -21°C° 0 mm 1 mps 746 mmHg 98%
    09:00 -20°C° 0 mm 1 mps 746 mmHg 97%
    10:00 -19°C° 0 mm 1 mps 746 mmHg 96%
    11:00 -18°C° 0 mm 1 mps 746 mmHg 95%
    12:00 -17°C° 0 mm 1 mps 746 mmHg 95%
    13:00 -17°C° 0 mm 1 mps 746 mmHg 95%
    14:00 -17°C° 0 mm 1 mps 746 mmHg 95%
    15:00 -18°C° 0 mm 1 mps 747 mmHg 97%
    16:00 -19°C° 0 mm 1 mps 747 mmHg 98%
    17:00 -20°C° 0 mm 1 mps 747 mmHg 99%
    18:00 -21°C° 0 mm 1 mps 747 mmHg 99%
    19:00 -21°C° 0 mm 0 mps 747 mmHg 99%
    20:00 -21°C° 0 mm 0 mps 747 mmHg 99%
    21:00 -21°C° 0 mm 1 mps 747 mmHg 99%
    22:00 -21°C° 0 mm 1 mps 747 mmHg 99%
    23:00 -21°C° 0 mm 1 mps 747 mmHg 99%

    23 Enero, Miércoles

    Tiempo Temperatura Precipitaciones Viento Presión Humedad
    00:00 -21°C° 0 mm 1 mps 747 mmHg 99%
    01:00 -21°C° 0 mm 1 mps 747 mmHg 99%
    02:00 -21°C° 0 mm 1 mps 747 mmHg 99%
    03:00 -24°C° 0 mm 2 mps 747 mmHg 99%
    04:00 -24°C° 0 mm 2 mps 747 mmHg 99%
    05:00 -24°C° 0 mm 2 mps 747 mmHg 98%
    06:00 -23°C° 0 mm 2 mps 747 mmHg 98%
    07:00 -23°C° 0 mm 2 mps 746 mmHg 98%
    08:00 -21°C° 0 mm 2 mps 746 mmHg 98%
    09:00 -21°C° 0 mm 3 mps 746 mmHg 97%
    10:00 -18°C° 0 mm 3 mps 746 mmHg 96%
    11:00 -16°C° 0 mm 3 mps 746 mmHg 94%
    12:00 -15°C° 0 mm 3 mps 746 mmHg 94%
    13:00 -14°C° 0 mm 3 mps 746 mmHg 93%
    14:00 -13°C° 0 mm 3 mps 746 mmHg 92%
    15:00 -12°C° 0 mm 3 mps 746 mmHg 92%
    16:00 -12°C° 0 mm 3 mps 746 mmHg 92%
    17:00 -10°C° 0 mm 3 mps 746 mmHg 92%
    18:00 -12°C° 0 mm 3 mps 746 mmHg 93%
    19:00 -13°C° 0 mm 3 mps 746 mmHg 93%
    20:00 -14°C° 0 mm 3 mps 746 mmHg 93%
    21:00 -14°C° 0 mm 3 mps 746 mmHg 93%
    22:00 -15°C° 0 mm 3 mps 746 mmHg 94%
    23:00 -14°C° 0 mm 2 mps 746 mmHg 94%
    Mostrar más